This is the latest recevied weather packets stored in our database for station/object W3TMB. If no packets are shown the sender has not sent any weather packets the latest 10 day(s).
| Time | Temp. | Humidity | Pressure | Rain* | Wind** | Luminosity | Snow |
|---|---|---|---|---|---|---|---|
| 1778007611 | 27.22° C | 38% | 1003.4 hPa | 0 mm | - | 217 W/m² | - |
| 1778007308 | 27.22° C | 39% | 1003.2 hPa | 0 mm | - | 218 W/m² | - |
| 1778007004 | 28.33° C | 38% | 1003.3 hPa | 0 mm | - | 233 W/m² | - |
| 1778006701 | 28.33° C | 37% | 1002.9 hPa | 0 mm | - | 298 W/m² | - |
| 1778006398 | 28.89° C | 37% | 1003.3 hPa | 0 mm | - | 497 W/m² | - |
| 1778006095 | 27.78° C | 38% | 1003.3 hPa | 0 mm | - | 815 W/m² | - |
| 1778005791 | 27.22° C | 42% | 1003.3 hPa | 0 mm | - | 432 W/m² | - |
| 1778005488 | 26.67° C | 41% | 1003.4 hPa | 0 mm | - | 329 W/m² | - |
| 1778005185 | 27.78° C | 39% | 1003.5 hPa | 0 mm | - | 251 W/m² | - |
| 1778004882 | 28.33° C | 39% | 1003.8 hPa | 0 mm | - | 358 W/m² | - |
| 1778004579 | 27.78° C | 41% | 1003.9 hPa | 0 mm | - | 832 W/m² | - |
| 1778004275 | 27.22° C | 39% | 1003.9 hPa | 0 mm | - | 853 W/m² | - |
| 1778003972 | 27.22° C | 40% | 1003.7 hPa | 0 mm | - | 261 W/m² | - |
| 1778003668 | 27.22° C | 42% | 1004 hPa | 0 mm | - | 412 W/m² | - |
| 1778003365 | 26.67° C | 43% | 1004 hPa | 0 mm | - | 432 W/m² | - |
| 1778003062 | 26.67° C | 42% | 1004.1 hPa | 0 mm | - | 374 W/m² | - |
| 1778002758 | 27.22° C | 42% | 1003.9 hPa | 0 mm | - | 747 W/m² | - |
| 1778002454 | 27.22° C | 42% | 1003.9 hPa | 0 mm | - | 876 W/m² | - |
| 1778002152 | 26.67° C | 44% | 1004.2 hPa | 0 mm | - | 732 W/m² | - |
| 1778001850 | 26.11° C | 44% | 1004.1 hPa | 0 mm | - | 377 W/m² | - |
| 1778001549 | 26.67° C | 44% | 1004.3 hPa | 0 mm | - | 592 W/m² | - |
| 1778001246 | 26.11° C | 45% | 1004.4 hPa | 0 mm | - | 430 W/m² | - |
| 1778000943 | 26.11° C | 45% | 1004.4 hPa | 0 mm | - | 383 W/m² | - |
| 1778000640 | 26.11° C | 45% | 1004.3 hPa | 0 mm | - | 560 W/m² | - |
| 1778000335 | 25.56° C | 48% | 1004.5 hPa | 0 mm | - | 471 W/m² | - |
* Rain latest hour (hover to see other rain measurements)
** Current wind speed in m/s (hover to see current wind gust speed)